Location: Central Falls
(41.8900°N, 71.3929°W)
Time: 15:41:50
(UTC+00:00)

Vanguard 1 - Pass Details

Date: 05 December 2023
Orbit: 653 x 3826 km, 34.3° (Epoch: 24 February)

Event Time Altitude Azimuth Distance (km) Brightness Sun altitude
Rises 01:31:58 0° 266° (W) 6,609 15.0 -47.1°
Reaches altitude 10° 01:35:47 10° 264° (W) 5,914 14.5 -47.8°
Enters shadow 01:55:33 69° 194° (SSW) 3,959 12.7 -51.3°
Maximum altitude 01:56:05 69° 187° (S) 3,964 - -51.4°
Drops below altitude 10° 02:18:33 10° 111° (ESE) 6,441 - -55.3°
Sets 02:22:57 0° 109° (ESE) 7,193 - -56.1°
